KD9AQS Weather Reports


time (UTC)temp
C
wind
direction
speed
KPH
gust
KPH
rain 1hr
cm
rain 24hr
cm
rain mn
cm
humidity
%
barometer
mb
20260504014600 12 184 0.0 0.0 0.00 0.00 0.00 66 1016.2
20260504013111 12 184 0.0 0.0 0.00 0.00 0.00 65 1016.3
20260504011557 13 184 0.0 0.0 0.00 0.00 0.00 63 1016.0
20260504010112 13 184 0.0 1.6 0.00 0.00 0.00 61 1016.1
20260504004625 15 186 1.6 3.2 0.00 0.00 0.00 59 1016.0
20260504003056 15 186 0.0 4.8 0.00 0.00 0.00 57 1015.8
20260504001606 16 186 0.0 1.6 0.00 0.00 0.00 53 1016.0
20260504000055 17 186 0.0 3.2 0.00 0.00 0.00 49 1016.0
20260503234552 18 187 0.0 4.8 0.00 0.00 0.00 44 1016.1
20260503233052 18 180 0.0 3.2 0.00 0.00 0.00 43 1016.2
20260503231650 18 185 3.2 9.7 0.00 0.00 0.00 42 1016.2
20260503230057 19 235 1.6 6.4 0.00 0.00 0.00 41 1016.4
20260503224547 18 244 3.2 11.3 0.00 0.00 0.00 38 1016.6
20260503223051 18 239 6.4 12.9 0.00 0.00 0.00 39 1016.7
20260503221545 18 285 3.2 17.7 0.00 0.00 0.00 40 1016.8
20260503220043 18 217 0.0 12.9 0.00 0.00 0.00 41 1016.8
20260503214541 18 183 1.6 14.5 0.00 0.00 0.00 38 1017.0
20260503213056 18 225 1.6 9.7 0.00 0.00 0.00 38 1017.2
20260503211536 18 292 6.4 16.1 0.00 0.00 0.00 38 1017.4
20260503210041 18 127 1.6 14.5 0.00 0.00 0.00 39 1017.4
20260503204547 18 192 4.8 11.3 0.00 0.00 0.00 41 1017.7
20260503203035 18 275 6.4 14.5 0.00 0.00 0.00 42 1017.9
20260503201533 18 212 4.8 9.7 0.00 0.00 0.00 43 1018.0
20260503200034 17 242 4.8 20.9 0.00 0.00 0.00 39 1018.4
20260503194532 18 269 3.2 11.3 0.00 0.00 0.00 44 1018.5
20260503193100 17 200 1.6 11.3 0.00 0.00 0.00 43 1018.8
20260503191615 17 277 4.8 11.3 0.00 0.00 0.00 45 1018.8
20260503190057 17 261 4.8 14.5 0.00 0.00 0.00 46 1019.0
20260503184558 16 313 1.6 9.7 0.00 0.00 0.00 46 1019.3
20260503183110 17 300 3.2 14.5 0.00 0.00 0.00 43 1019.3
20260503181548 16 130 1.6 9.7 0.00 0.00 0.00 46 1019.6
20260503180047 16 130 1.6 11.3 0.00 0.00 0.00 46 1019.8
20260503174544 15 100 4.8 16.1 0.00 0.00 0.00 44 1019.9
20260503173109 16 331 3.2 11.3 0.00 0.00 0.00 48 1020.0
20260503171545 15 38 4.8 12.9 0.00 0.00 0.00 48 1020.3
20260503081536 7 329 1.6 6.4 0.00 0.00 0.00 82 1018.5
20260503071524 8 329 0.0 4.8 0.00 0.00 0.00 77 1018.0
20260503054524 8 351 0.0 1.6 0.00 0.00 0.00 75 1017.8
20260503053013 9 351 0.0 0.0 0.00 0.00 0.00 74 1017.7
20260503051511 9 351 0.0 1.6 0.00 0.00 0.00 70 1017.7
20260503050010 10 351 0.0 4.8 0.00 0.00 0.00 70 1017.7
20260503044506 10 355 0.0 3.2 0.00 0.00 0.00 67 1017.6
20260503043002 11 355 0.0 0.0 0.00 0.00 0.00 64 1017.4
20260503041608 11 355 0.0 0.0 0.00 0.00 0.00 62 1017.3
20260503040059 11 351 3.2 12.9 0.00 0.00 0.00 61 1017.4
20260503034608 12 332 4.8 9.7 0.00 0.00 0.00 60 1017.4
20260503033100 12 327 6.4 16.1 0.00 0.00 0.00 58 1017.6
20260503031555 12 320 8.0 16.1 0.00 0.00 0.00 58 1017.5
20260503030056 12 360 0.0 6.4 0.00 0.00 0.00 59 1017.3
20260503024554 12 327 0.0 8.0 0.00 0.00 0.00 58 1017.1
20260503023049 12 348 1.6 9.7 0.00 0.00 0.00 57 1016.8
20260503021547 12 31 1.6 14.5 0.00 0.00 0.00 55 1016.4
20260503020047 12 46 0.0 9.7 0.00 0.00 0.00 56 1016.2